Location: Grossmotten
(48.5500°N, 15.3833°E)
Time: 09:25:42
(UTC+00:00)

Meteor 2-20 Rocket - Pass Details

Date: 15 November 2019
Orbit: 941 x 958 km, 82.5° (Epoch: 11 December)

Event Time Altitude Azimuth Distance (km) Brightness Sun altitude
Rises 04:02:36 0° 349° (N) 3,652 7.3 -20.3°
Reaches altitude 10° 04:05:07 10° 348° (NNW) 2,702 6.6 -19.9°
Maximum altitude 04:11:18 81° 262° (W) 977 4.4 -18.8°
Drops below altitude 10° 04:17:27 10° 177° (S) 2,683 6.9 -17.8°
Sets 04:19:56 0° 176° (S) 3,623 7.6 -17.4°
